SCP
0 0 0 0 0 0 0 0 0 0 0 0 0 0 0 0 0 0 0 1 1 1 1 1 1 1 1 1 1 1 0 0 0 0 0 0 0 0 0 0 0 0 0
0 0 0 0 0 0 0 0 0 0 0 0 0 0 0 0 0 0 0 0 1 1 1 1 1 1 1 1 1 1 1 0 0 0 0 0 0 0 0 0 0 0 0
0 0 0 0 0 0 0 0 0 0 0 0 0 0 0 0 0 0 0 0 0 1 1 1 1 1 1 1 1 1 1 1 0 0 0 0 0 0 0 0 0 0 0
0 0 0 0 0 0 0 0 0 0 0 0 0 0 0 0 0 0 0 0 0 0 1 1 1 1 1 1 1 1 1 1 0 0 0 0 0 0 0 0 0 0 0
0 0 0 0 0 0 0 0 0 0 0 0 0 0 0 0 0 0 0 0 0 0 1 1 1 1 1 1 1 1 1 1 1 0 0 0 0 0 0 0 0 0 0
0 0 1 0 0 0 0 0 0 0 0 0 0 0 0 0 0 0 0 0 0 0 0 0 1 1 1 1 1 1 1 1 1 1 0 0 0 0 0 0 0 0 0
1 1 1 1 1 0 0 0 0 0 0 1 1 1 1 0 0 0 0 0 0 0 0 0 0 1 1 1 1 1 1 1 1 1 0 0 0 0 0 0 0 0 0
1 1 1 1 1 1 1 1 1 1 1 1 1 1 1 1 1 0 0 0 0 0 0 0 0 0 0 0 1 1 1 1 1 1 0 0 0 0 0 0 0 0 0
1 1 1 1 1 1 1 1 1 1 1 1 1 1 1 1 1 1 0 0 0 0 0 0 0 0 0 0 0 0 1 1 1 0 0 0 0 0 0 0 0 0 0
1 1 1 1 1 1 1 1 1 1 1 1 1 1 1 1 1 1 1 1 0 0 0 0 0 0 0 0 0 0 0 0 0 0 0 0 0 0 0 0 0 0 0
1 1 1 1 1 1 1 1 1 1 1 1 1 1 1 1 1 1 1 1 1 1 0 0 0 0 0 0 0 0 0 0 0 0 0 0 0 0 0 0 0 0 0
1 1 1 1 1 1 1 1 1 1 1 1 1 1 1 1 1 1 1 1 1 1 1 0 0 0 0 0 0 0 0 0 0 0 0 0 0 0 0 0 0 0 0
1 1 1 1 1 1 1 1 1 1 1 1 1 1 1 1 1 1 1 1 1 1 1 1 0 0 0 0 0 0 0 0 0 0 0 0 0 1 1 0 0 0 0
1 1 1 0 0 1 1 1 1 1 1 1 1 1 1 1 1 1 1 1 1 1 1 1 1 0 0 0 0 0 0 0 0 0 0 0 0 1 1 0 0 0 0
1 1 0 0 0 0 1 1 1 1 1 1 1 1 1 1 1 1 1 1 1 1 1 1 1 1 0 0 0 0 0 0 0 0 0 0 0 0 0 0 0 0 0
0 0 0 0 0 1 1 1 1 1 1 1 1 1 1 1 1 1 1 1 1 1 1 1 1 1 0 0 0 0 0 0 0 0 0 0 0 0 0 0 0 0 0
0 0 0 0 1 1 1 0 0 0 0 0 0 0 0 1 1 1 1 1 1 1 1 1 1 1 1 0 0 0 0 0 0 0 0 0 0 0 0 0 0 0 0
0 0 0 0 0 1 0 0 0 0 0 0 0 0 0 0 1 1 1 1 1 1 1 1 1 1 1 0 0 0 0 0 0 0 0 0 0 0 0 0 0 0 0
0 0 0 0 0 0 0 0 0 0 0 0 0 0 0 0 0 0 1 1 1 1 1 1 1 1 1 1 1 1 0 0 0 0 0 0 0 0 0 0 0 0 0
0 0 0 0 0 0 0 0 0 0 0 0 0 0 0 0 0 0 0 1 1 1 1 1 1 1 1 0 1 1 1 1 0 0 0 0 0 0 0 0 0 0 0
1 1 1 1 1 1 1 0 0 0 0 0 0 0 0 0 0 0 0 0 0 0 0 1 1 1 1 0 0 1 1 1 1 0 0 0 0 0 0 0 0 0 0
1 1 1 1 1 1 1 0 0 0 0 0 0 0 0 0 0 0 0 0 0 0 0 0 1 1 0 0 0 0 1 1 1 1 0 0 0 0 0 0 0 0 0
1 1 1 1 1 1 1 0 0 0 0 0 1 0 0 0 0 0 0 0 0 0 0 0 0 0 0 0 0 0 0 0 1 0 0 0 0 0 0 0 0 0 0
1 1 1 1 1 1 1 0 0 1 0 0 0 0 0 0 0 0 0 0 0 0 0 0 0 0 0 0 0 0 0 0 0 0 0 0 0 0 0 0 0 0 0
1 1 1 1 1 1 1 0 0 1 1 1 0 0 0 0 0 0 0 0 0 0 0 0 0 0 0 0 0 0 0 0 0 0 0 0 0 0 0 0 0 0 0
1 1 1 1 1 1 1 0 1 1 1 1 1 0 0 0 0 0 0 0 0 0 0 0 0 0 0 0 0 0 0 0 0 0 0 0 0 0 0 0 0 0 0
Wind_Speed
6 5 5 4 5 4 5 4 3 3 3 2 1 1 2 2 2 1 4 6 5 4 2 2 3 3 3 3 3 4 4 4 4 4 4 4 3 2 2 1 0 1 1
6 5 6 5 5 5 4 4 3 3 3 2 2 2 2 2 2 1 2 5 6 5 3 2 2 2 2 2 3 3 3 3 3 4 4 4 3 2 2 1 1 1 1
7 6 5 6 6 6 6 4 3 2 2 3 3 2 2 2 1 2 2 1 4 6 5 4 3 3 2 2 3 3 3 3 2 3 4 4 3 3 3 2 2 2 2
9 6 5 6 6 5 5 4 4 4 3 3 3 3 2 2 1 2 2 2 1 2 6 7 5 4 3 3 3 3 2 2 2 2 2 3 4 4 3 3 3 3 2
10 7 5 5 6 5 5 5 5 4 4 4 3 3 2 2 1 2 2 2 3 1 2 6 6 6 5 4 3 2 2 2 2 2 2 3 3 3 4 4 4 3 3
10 8 6 7 6 5 5 6 6 5 4 4 4 4 3 3 3 2 1 1 1 2 1 2 3 6 6 5 4 3 2 2 1 0 1 2 3 3 4 4 4 4 4
10 9 7 7 7 6 7 8 6 7 5 5 4 4 5 6 5 4 4 4 3 2 3 2 1 1 4 5 5 4 3 2 2 2 1 1 2 2 3 4 4 4 4
9 8 9 7 8 7 9 9 8 6 5 6 5 4 5 6 6 7 5 5 5 5 4 4 4 3 2 2 6 4 4 3 2 2 1 1 1 2 2 3 3 4 3
9 9 9 8 8 8 7 9 9 9 7 7 7 5 4 5 3 5 8 7 6 4 5 5 5 5 4 2 3 6 3 3 2 2 2 2 2 2 2 2 2 3 3
8 8 9 8 8 7 7 8 9 8 9 7 6 6 5 3 3 3 4 6 8 7 7 5 6 5 5 3 2 2 2 1 1 2 2 3 3 2 2 2 2 2 3
6 7 7 7 8 7 8 8 8 9 8 8 7 6 6 4 6 4 4 3 5 7 8 7 6 6 5 5 4 5 4 2 1 1 2 3 3 3 2 1 1 2 2
4 6 6 7 7 6 7 7 8 10 9 9 9 8 7 6 7 6 6 5 4 5 7 6 7 6 6 6 6 7 6 5 3 2 1 2 3 3 2 1 1 1 1
3 5 6 6 5 6 6 6 7 8 9 10 10 8 8 9 7 7 7 7 6 4 4 6 7 7 7 7 6 10 9 8 6 4 3 2 1 2 2 2 2 2 3
3 3 5 4 4 4 5 5 5 6 6 8 9 9 7 7 7 7 7 6 6 5 6 7 5 7 7 8 7 11 8 11 8 7 5 3 2 1 1 2 2 3 3
3 4 4 4 4 4 4 4 4 5 5 6 7 8 7 7 7 7 7 7 7 6 6 6 4 6 6 7 7 9 10 12 11 9 7 6 4 3 2 1 1 2 3
4 5 4 4 4 4 4 3 3 3 5 5 5 7 7 6 6 6 7 7 7 7 5 3 3 3 4 5 7 9 8 14 12 10 9 8 7 5 4 3 2 1 1
5 5 5 4 4 4 4 4 4 4 5 5 5 6 7 7 6 6 6 6 6 6 8 5 3 3 4 6 6 8 8 8 9 13 11 10 9 8 7 6 5 4 3
3 4 4 4 4 4 3 4 4 4 4 4 4 5 6 5 7 6 5 7 6 7 7 8 5 4 6 5 6 7 7 7 7 12 13 11 11 10 9 8 8 7 6
3 3 4 4 4 4 4 4 4 4 4 4 4 4 4 5 5 5 5 5 5 6 6 6 5 3 3 3 5 5 7 6 7 8 11 12 12 11 11 10 10 9 8
2 3 4 4 4 4 5 5 5 4 4 4 3 4 4 4 4 4 4 5 5 5 5 5 4 3 3 2 3 4 5 5 6 6 7 8 10 13 13 13 12 12 11
3 3 4 4 4 4 4 4 5 4 4 4 4 4 2 1 3 2 2 2 3 3 4 4 4 3 3 3 4 3 3 3 4 4 5 6 7 9 11 14 15 15 13
2 2 4 4 4 4 1 2 6 5 5 5 4 4 3 4 4 4 2 2 3 3 2 2 2 3 3 4 3 3 3 2 3 2 4 5 5 7 7 8 11 15 16
2 2 2 2 3 1 1 4 8 7 6 5 5 4 3 3 4 4 6 7 5 3 4 4 2 2 2 3 4 4 3 3 3 2 2 4 4 6 6 6 8 12 14
3 3 3 3 2 2 2 3 5 9 7 6 6 5 5 5 3 3 3 4 3 4 4 5 3 2 1 1 3 3 3 3 2 1 2 3 3 5 5 5 8 11 13
5 5 5 5 4 3 5 4 4 6 5 6 5 4 4 3 4 1 5 4 3 2 2 3 5 4 3 1 2 2 3 2 2 3 4 3 3 3 4 5 4 9 10
5 5 6 6 6 6 8 6 4 3 4 4 3 3 1 2 2 2 5 3 3 1 1 3 4 5 5 5 7 6 4 3 2 2 3 3 2 2 3 2 1 2 5
Wind_Direction
196 181 187 179 192 174 177 184 205 162 183 166 107 78 82 70 57 60 97 80 50 42 63 115 125 133 134 142 149 152 151 155 159 161 159 158 159 160 157 149 95 30 6
201 188 196 185 192 191 188 197 190 189 192 167 135 81 46 66 75 68 76 111 89 61 55 83 110 130 141 152 155 157 161 160 168 182 184 187 195 199 205 222 253 308 331
203 198 203 191 194 195 195 206 181 212 184 172 168 159 104 59 83 114 94 76 120 100 71 65 76 84 107 135 145 142 148 162 180 200 204 206 212 219 228 239 252 274 300
209 204 207 205 200 198 207 196 214 210 188 196 181 168 150 131 133 60 111 125 100 113 105 74 64 67 76 93 114 125 134 152 176 198 204 213 222 227 236 242 247 261 278
212 206 213 215 202 203 214 213 212 219 205 200 194 190 192 172 151 193 156 127 117 129 113 107 93 68 64 68 87 107 124 144 173 200 214 225 232 232 238 243 241 251 265
219 217 212 218 213 211 220 222 216 222 228 211 216 201 207 208 211 214 223 189 185 126 107 135 155 109 81 60 53 64 80 93 96 160 238 234 240 241 244 246 243 245 253
225 221 224 221 214 217 221 225 216 214 217 211 211 215 217 229 231 209 223 226 197 181 211 193 201 190 134 113 70 54 55 65 58 43 14 313 272 257 256 252 248 243 248
228 227 226 226 223 224 224 223 218 217 216 210 213 217 225 212 217 224 218 228 229 197 219 209 198 202 210 186 100 73 47 40 31 27 18 345 300 271 273 266 251 241 246
233 230 235 233 233 229 225 222 217 216 214 217 222 215 227 230 203 203 218 220 228 225 222 219 217 203 195 208 164 129 70 30 21 23 11 358 340 291 272 264 260 253 251
237 231 233 233 232 229 228 226 221 220 217 214 215 231 242 255 234 213 205 222 223 226 229 216 227 223 207 198 145 104 123 24 5 1 7 1 353 339 280 258 265 272 265
236 230 230 231 231 229 229 227 222 221 219 217 209 203 215 227 242 245 234 219 220 228 230 225 219 221 209 212 204 160 159 197 250 307 337 349 353 349 327 284 280 285 275
233 225 223 228 231 230 228 225 224 221 226 225 221 215 209 212 218 223 232 233 232 235 229 225 226 219 215 217 210 150 182 198 208 221 273 324 340 349 351 339 337 353 338
221 212 211 220 222 227 228 224 227 226 226 229 229 229 229 231 230 228 232 237 238 238 232 227 222 219 214 217 199 171 196 199 204 210 219 243 308 339 350 356 3 20 28
208 188 200 204 206 211 215 217 229 229 231 231 236 236 238 239 237 232 235 236 236 235 232 233 212 217 218 217 197 183 194 190 199 205 207 211 219 243 1 19 31 34 32
170 168 179 180 177 185 202 204 218 223 229 230 235 238 239 239 238 238 238 233 236 240 236 231 219 214 215 224 175 202 214 180 191 200 204 207 208 206 199 151 80 42 33
155 161 168 162 163 164 177 191 206 209 221 224 229 233 234 237 235 234 235 235 235 244 251 231 220 219 208 219 197 225 224 156 186 198 204 207 207 206 203 202 201 213 338
168 170 163 160 156 161 167 174 194 193 213 218 222 230 232 231 232 232 231 231 230 232 245 241 214 223 222 229 192 219 216 199 194 194 203 208 209 211 211 212 215 222 239
167 172 162 165 156 163 174 179 180 194 210 217 221 227 232 228 231 231 229 230 229 228 238 247 225 217 227 234 223 211 213 216 218 180 196 208 212 214 215 217 220 223 230
171 180 182 181 174 177 181 193 193 197 208 217 223 233 237 233 234 232 229 231 232 230 231 243 236 209 214 222 227 220 218 217 224 185 193 209 214 217 218 218 219 221 226
218 216 212 206 200 201 202 202 208 205 209 209 219 234 238 235 242 237 234 235 233 231 228 233 231 204 182 192 217 214 212 209 221 213 207 211 211 213 220 220 220 220 222
279 254 241 231 221 227 224 225 223 221 220 209 218 227 231 327 348 310 292 272 243 234 227 225 225 207 187 178 198 204 218 213 231 230 227 216 213 219 213 218 222 223 220
307 277 257 247 232 234 163 239 261 233 231 225 220 213 183 200 185 202 246 309 315 296 270 232 224 219 207 194 184 186 196 201 224 199 238 243 234 240 236 231 203 204 213
358 326 307 285 261 216 136 227 237 254 239 234 230 213 197 194 221 207 183 202 216 229 266 290 271 244 211 193 187 193 203 212 219 176 218 258 239 247 249 236 195 200 210
20 10 5 355 341 32 4 273 233 240 236 229 231 234 222 210 203 268 236 231 227 209 224 253 276 293 312 179 196 206 203 212 226 198 203 253 247 252 258 250 199 208 216
31 30 26 18 14 30 19 336 263 235 235 230 224 237 254 232 110 275 260 251 242 214 175 264 321 336 4 315 238 215 202 205 230 217 194 236 265 263 261 254 204 201 221
30 33 35 29 25 23 23 6 302 246 235 220 208 208 181 301 106 221 255 259 259 243 244 200 221 218 227 205 209 234 231 230 236 237 187 212 252 268 278 252 258 213 216